TimeMDT,TemperatureF,Dew PointF,Humidity,Sea Level PressureIn,VisibilityMPH,Wind Direction,Wind SpeedMPH,Gust SpeedMPH,PrecipitationIn,Events,Conditions,WindDirDegrees,DateUTC
12:53 AM,41.0,36.0,82,30.01,10.0,Calm,Calm,-,N/A,,Overcast,0,2011-10-24 06:53:00
1:53 AM,45.0,37.0,74,29.99,10.0,Calm,Calm,-,N/A,,Overcast,0,2011-10-24 07:53:00
4:53 AM,48.0,35.1,61,29.97,10.0,West,10.4,-,N/A,,Overcast,270,2011-10-24 10:53:00
5:53 AM,46.9,36.0,66,29.98,10.0,Calm,Calm,-,0.00,,Overcast,0,2011-10-24 11:53:00
6:53 AM,45.0,37.9,76,29.98,10.0,SSE,4.6,-,N/A,,Overcast,150,2011-10-24 12:53:00
7:53 AM,44.1,39.0,82,29.97,9.0,ESE,5.8,-,0.01,Rain,Light Rain,110,2011-10-24 13:53:00
8:53 AM,45.0,39.0,80,29.98,10.0,Calm,Calm,-,0.00,,Overcast,0,2011-10-24 14:53:00
9:53 AM,45.0,42.1,90,29.97,10.0,North,6.9,-,N/A,,Overcast,360,2011-10-24 15:53:00
10:53 AM,45.0,41.0,86,29.97,10.0,East,3.5,-,N/A,,Overcast,90,2011-10-24 16:53:00
11:53 AM,48.9,37.9,66,29.96,10.0,Calm,Calm,-,N/A,,Mostly Cloudy,0,2011-10-24 17:53:00
12:53 PM,50.0,39.0,66,29.97,10.0,WNW,3.5,-,N/A,,Overcast,290,2011-10-24 18:53:00
1:53 PM,48.9,33.1,54,29.99,10.0,West,16.1,25.3,0.00,,Mostly Cloudy,260,2011-10-24 19:53:00
2:53 PM,48.9,28.0,44,29.99,10.0,West,16.1,25.3,N/A,,Mostly Cloudy,280,2011-10-24 20:53:00
4:53 PM,50.0,21.9,33,30.03,10.0,WNW,10.4,20.7,N/A,,Scattered Clouds,290,2011-10-24 22:53:00
5:53 PM,46.0,21.0,37,30.06,10.0,WNW,15.0,25.3,N/A,,Clear,290,2011-10-24 23:53:00
6:53 PM,43.0,21.0,42,30.12,10.0,NNW,6.9,-,N/A,,Clear,330,2011-10-25 00:53:00
7:53 PM,42.1,21.9,45,30.14,10.0,WNW,18.4,-,N/A,,Clear,290,2011-10-25 01:53:00
8:53 PM,41.0,21.2,45,30.09,10.0,West,13.8,24.2,N/A,,Clear,280,2011-10-25 02:53:00
9:53 PM,39.0,21.9,50,30.20,10.0,West,9.2,-,N/A,,Clear,280,2011-10-25 03:53:00
10:53 PM,37.9,21.9,53,30.21,10.0,West,9.2,-,N/A,,Clear,260,2011-10-25 04:53:00
11:53 PM,35.1,23.0,61,30.23,10.0,West,8.1,-,N/A,,Partly Cloudy,260,2011-10-25 05:53:00